Freeport, IL

11:51 PM CST on December 10, 2019 (GMT -0600)
Albertus

Weather History for KFEP - October, 2019

Change the Weather History Date:

Monday, October 14, 2019

  Actual Average Record
Temperature  
Mean Temperature 41 °F -  
Max Temperature 52 °F 60 °F 88 °F (1975)
Min Temperature 31 °F 36 °F 24 °F (1988)
Degree Days  
Heating Degree Days 24    
Moisture  
Dew Point 33 °F    
Average Humidity 78    
Maximum Humidity 99    
Minimum Humidity 48    
Precipitation  
Precipitation 0.00 in - - ()
Sea Level Pressure  
Sea Level Pressure 30.05 in    
Wind  
Wind Speed 5 mph (WSW)    
Max Wind Speed 8 mph    
Max Gust Speed -    
Visibility 10 miles    
Events      
Averages and records for this station are not official NWS values.
T = Trace of Precipitation, MM = Missing Value Source: NWS Daily Summary

Daily Weather History Graph

Daily Weather History Graph

Search for Another Location

Airport or City:

Astronomy

Oct. 14, 2019 Rise Set
Actual Time 7:09 AM CDT 6:18 PM CDT
Civil Twilight 6:41 AM CDT 6:46 PM CDT
Nautical Twilight 6:08 AM CDT 7:18 PM CDT
Astronomical Twilight 5:36 AM CDT 7:51 PM CDT
Moon 7:08 PM CDT (10/14) 7:41 AM CDT (10/14)
Length of Visible Light 12h 05m
Length of Day
11h 08m
Full, 99% of the Moon is Illuminated
Oct 14
Full
Oct 21
Last Quarter
Oct 27
New
Nov 4
First Quarter
Nov 12
Full

Hourly Weather History & Observations

Time (CDT) Temp. Windchill Dew Point Humidity Pressure Visibility Wind Dir Wind Speed Gust Speed Precip Events Conditions
12:15 AM 36.3 °F 33.7 °F 31.5 °F 83% 29.98 in 10.0 mi West 3.5 mph - N/A   Clear
12:35 AM 35.6 °F 31.7 °F 31.6 °F 85% 29.99 in 10.0 mi WSW 4.6 mph - N/A   Clear
12:55 AM 35.4 °F 31.5 °F 32.0 °F 87% 29.99 in 10.0 mi WSW 4.6 mph - N/A   Clear
1:15 AM 35.2 °F 30.3 °F 32.0 °F 88% 29.99 in 10.0 mi West 5.8 mph - N/A   Clear
1:35 AM 34.7 °F 30.6 °F 31.6 °F 89% 30.00 in 10.0 mi West 4.6 mph - N/A   Clear
1:55 AM 34.7 °F 29.6 °F 31.1 °F 87% 30.00 in 10.0 mi WNW 5.8 mph - N/A   Clear
2:15 AM 32.9 °F 27.5 °F 31.8 °F 96% 30.00 in 10.0 mi WSW 5.8 mph - N/A   Clear
2:35 AM 32.4 °F 26.9 °F 31.8 °F 98% 30.01 in 10.0 mi WSW 5.8 mph - N/A   Clear
2:55 AM 32.9 °F 26.7 °F 31.6 °F 95% 30.01 in 10.0 mi WSW 6.9 mph - N/A   Clear
3:15 AM 33.4 °F 28.1 °F 31.6 °F 93% 30.01 in 10.0 mi WSW 5.8 mph - N/A   Clear
3:35 AM 32.5 °F 27.1 °F 31.8 °F 97% 30.01 in 10.0 mi WSW 5.8 mph - N/A   Clear
3:55 AM 32.0 °F 25.6 °F 31.5 °F 98% 30.01 in 10.0 mi WSW 6.9 mph - N/A   Clear
4:15 AM 32.0 °F 26.4 °F 31.6 °F 99% 30.01 in 10.0 mi WSW 5.8 mph - N/A   Clear
4:35 AM 32.9 °F 28.5 °F 31.6 °F 95% 30.02 in 10.0 mi WSW 4.6 mph - N/A   Clear
4:55 AM 32.2 °F 27.7 °F 31.6 °F 98% 30.02 in 10.0 mi WSW 4.6 mph - N/A   Clear
5:15 AM 32.4 °F 27.9 °F 31.6 °F 97% 30.03 in 10.0 mi West 4.6 mph - N/A   Clear
5:35 AM 32.0 °F 27.5 °F 31.5 °F 98% 30.04 in 10.0 mi West 4.6 mph - N/A   Clear
6:15 AM 31.8 °F 26.2 °F 31.1 °F 97% 30.05 in 10.0 mi SW 5.8 mph - N/A   Clear
6:35 AM 31.6 °F 26.0 °F 31.1 °F 98% 30.05 in 10.0 mi WSW 5.8 mph - N/A   Clear
6:55 AM 32.0 °F 27.5 °F 31.5 °F 98% 30.06 in 10.0 mi West 4.6 mph - N/A   Clear
7:15 AM 32.0 °F 25.6 °F 31.6 °F 99% 30.07 in 10.0 mi West 6.9 mph - N/A   Clear
7:35 AM 32.5 °F 28.1 °F 31.8 °F 97% 30.08 in 10.0 mi West 4.6 mph - N/A   Clear
7:55 AM 32.9 °F 26.7 °F 32.0 °F 96% 30.08 in 10.0 mi West 6.9 mph - N/A   Clear
8:15 AM 34.7 °F 30.6 °F 32.5 °F 92% 30.08 in 10.0 mi West 4.6 mph - N/A   Clear
8:35 AM 36.0 °F 31.1 °F 33.3 °F 90% 30.10 in 10.0 mi West 5.8 mph - N/A   Clear
8:55 AM 37.2 °F 33.6 °F 33.8 °F 87% 30.11 in 10.0 mi West 4.6 mph - N/A   Clear
9:15 AM 38.8 °F 35.4 °F 34.5 °F 84% 30.11 in 10.0 mi West 4.6 mph - N/A   Clear
9:35 AM 39.7 °F 35.6 °F 34.2 °F 80% 30.11 in 10.0 mi West 5.8 mph - N/A   Clear
9:55 AM 41.2 °F 37.3 °F 34.0 °F 76% 30.11 in 10.0 mi WSW 5.8 mph - N/A   Clear
10:15 AM 43.3 °F 38.6 °F 33.8 °F 69% 30.11 in 10.0 mi West 8.1 mph - N/A   Clear
10:35 AM 43.9 °F 39.9 °F 32.4 °F 64% 30.11 in 10.0 mi West 6.9 mph - N/A   Clear
10:55 AM 45.1 °F 41.4 °F 32.2 °F 60% 30.12 in 10.0 mi West 6.9 mph - N/A   Clear
11:15 AM 45.5 °F 43.2 °F 32.0 °F 59% 30.11 in 10.0 mi West 4.6 mph - N/A   Scattered Clouds
11:35 AM 46.4 °F 42.4 °F 32.0 °F 57% 30.11 in 10.0 mi WNW 8.1 mph - N/A   Scattered Clouds
11:55 AM 46.6 °F - 30.9 °F 54% 30.11 in 10.0 mi WNW 8.1 mph - N/A   Clear
12:15 PM 46.8 °F - 31.1 °F 55% 30.11 in 10.0 mi West 8.1 mph - N/A   Clear
12:35 PM 48.2 °F - 31.8 °F 53% 30.11 in 10.0 mi WSW 4.6 mph - N/A   Clear
1:15 PM 48.0 °F - 31.8 °F 54% 30.09 in 10.0 mi SW 6.9 mph - N/A   Clear
1:35 PM 49.3 °F - 32.7 °F 53% 30.09 in 10.0 mi WNW 4.6 mph - N/A   Clear
1:55 PM 50.0 °F - 32.5 °F 51% 30.08 in 10.0 mi West 6.9 mph - N/A   Clear
2:15 PM 50.7 °F - 33.4 °F 52% 30.08 in 10.0 mi SSW 5.8 mph - N/A   Clear
2:35 PM 50.2 °F - 32.2 °F 50% 30.07 in 10.0 mi WSW 8.1 mph - N/A   Clear
2:55 PM 50.9 °F - 32.2 °F 49% 30.07 in 10.0 mi WSW 4.6 mph - N/A   Clear
3:15 PM 51.6 °F - 32.7 °F 49% 30.06 in 10.0 mi WSW 6.9 mph - N/A   Clear
3:35 PM 51.4 °F - 33.1 °F 50% 30.06 in 10.0 mi West 4.6 mph - N/A   Clear
3:55 PM 51.4 °F - 32.5 °F 49% 30.05 in 10.0 mi SW 5.8 mph - N/A   Clear
4:15 PM 51.3 °F - 32.2 °F 48% 30.05 in 10.0 mi SSW 4.6 mph - N/A   Clear
4:35 PM 51.3 °F - 32.5 °F 49% 30.05 in 10.0 mi WSW 3.5 mph - N/A   Clear
4:55 PM 51.3 °F - 32.9 °F 50% 30.04 in 10.0 mi SW 4.6 mph - N/A   Clear
5:15 PM 50.9 °F - 33.8 °F 52% 30.04 in 10.0 mi SW 4.6 mph - N/A   Clear
5:35 PM 49.8 °F - 33.3 °F 53% 30.04 in 10.0 mi SSW 6.9 mph - N/A   Clear
5:55 PM 47.7 °F - 34.2 °F 60% 30.04 in 10.0 mi SSW 4.6 mph - N/A   Clear
6:15 PM 47.3 °F - 34.0 °F 60% 30.04 in 10.0 mi Calm Calm - N/A   Clear
6:35 PM 43.9 °F 42.3 °F 34.7 °F 70% 30.04 in 10.0 mi South 3.5 mph - N/A   Clear
6:55 PM 41.0 °F 38.0 °F 34.5 °F 78% 30.04 in 10.0 mi South 4.6 mph - N/A   Clear
7:15 PM 40.3 °F 38.2 °F 34.9 °F 81% 30.04 in 10.0 mi South 3.5 mph - N/A   Clear
7:35 PM 38.7 °F - 35.1 °F 87% 30.04 in 10.0 mi Calm Calm - N/A   Clear
7:55 PM 38.3 °F 34.8 °F 34.9 °F 87% 30.03 in 10.0 mi SSE 4.6 mph - N/A   Clear
8:15 PM 37.9 °F 33.5 °F 34.7 °F 88% 30.03 in 10.0 mi SSE 5.8 mph - N/A   Clear
8:35 PM 37.0 °F 33.3 °F 35.4 °F 94% 30.03 in 10.0 mi SSE 4.6 mph - N/A   Clear
9:15 PM 38.3 °F 34.8 °F 35.4 °F 89% 30.02 in 10.0 mi SSE 4.6 mph - N/A   Clear
9:35 PM 39.9 °F 36.7 °F 35.1 °F 83% 30.02 in 10.0 mi SE 4.6 mph - N/A   Clear
9:55 PM 37.4 °F - 35.4 °F 93% 30.02 in 10.0 mi Calm Calm - N/A   Clear
10:15 PM 36.7 °F - 35.4 °F 95% 30.02 in 10.0 mi Calm Calm - N/A   Clear
10:35 PM 38.1 °F 35.7 °F 35.2 °F 89% 30.03 in 10.0 mi SE 3.5 mph - N/A   Clear
10:55 PM 37.9 °F - 35.6 °F 91% 30.03 in 10.0 mi Calm Calm - N/A   Clear
11:15 PM 35.4 °F 29.7 °F 34.2 °F 95% 30.02 in 10.0 mi East 6.9 mph - N/A   Clear
11:35 PM 35.8 °F - 34.9 °F 97% 30.02 in 10.0 mi Calm Calm - N/A   Clear
11:55 PM 35.4 °F - 34.7 °F 97% 30.01 in 10.0 mi Calm Calm - N/A   Clear